Вернуться в каталог

SL-16 DEB

АктивенLEO
NORAD 22545·DEBRIS·🇷🇺 Russia

Запущен Dec 25, 1992 с Baikonur Cosmodrome

Loading…

Ближайшие Пролёты (ближайшие 24 часа)

TLE

СвежийSource: Space-Track

Эпоха: Sep 13, 2026, 05:39 UTC

1 22545U 92093HF  26256.23551597  .00000218  00000-0  26557-3 0  9998
2 22545  71.5631 339.5327 0383647  99.6171 264.8474 13.46808805634291

Отслеживайте SL-16 DEB в реальном времени с AllMySat

Download on the App Store